Location: Armstrong
(40.9123°N, 82.0110°W)
Time: 08:56:49
(UTC+00:00)

Cosmos 2263 Rocket - Pass Details

Date: 29 October 2020
Orbit: 822 x 850 km, 71.0° (Epoch: 29 November)

Event Time Altitude Azimuth Distance (km) Brightness Sun altitude
Rises 23:43:21 0° 348° (NNW) 3,420 5.4 -14.9°
Reaches altitude 10° 23:46:40 10° 8° (N) 2,483 4.5 -15.6°
Enters shadow 23:50:22 18° 48° (NE) 1,979 3.7 -16.3°
